Year,Month,Day,Hour,Minute,Value (Times are PST for temperature in C)
2021,06,26,00,00,21.50
2021,06,26,00,01,21.50
2021,06,26,00,02,21.40
2021,06,26,00,03,21.40
2021,06,26,00,04,21.40
2021,06,26,00,05,21.40
2021,06,26,00,06,21.40
2021,06,26,00,07,21.40
2021,06,26,00,08,21.40
2021,06,26,00,09,21.40
2021,06,26,00,10,21.30
2021,06,26,00,11,21.30
2021,06,26,00,12,21.30
2021,06,26,00,13,21.30
2021,06,26,00,14,21.30
2021,06,26,00,15,21.30
2021,06,26,00,16,21.20
2021,06,26,00,17,21.20
2021,06,26,00,18,21.20
2021,06,26,00,19,21.20
2021,06,26,00,20,21.20
2021,06,26,00,21,21.30
2021,06,26,00,22,21.30
2021,06,26,00,23,21.30
2021,06,26,00,24,21.30
2021,06,26,00,25,21.30
2021,06,26,00,26,21.30
2021,06,26,00,27,21.30
2021,06,26,00,28,21.30
2021,06,26,00,29,21.20
2021,06,26,00,30,21.20
2021,06,26,00,31,21.20
2021,06,26,00,32,21.20
2021,06,26,00,33,21.10
2021,06,26,00,34,21.10
2021,06,26,00,35,21.00
2021,06,26,00,36,21.00
2021,06,26,00,37,20.90
2021,06,26,00,38,20.90
2021,06,26,00,39,20.90
2021,06,26,00,40,20.80
2021,06,26,00,41,20.80
2021,06,26,00,42,20.80
2021,06,26,00,43,20.80
2021,06,26,00,44,20.80
2021,06,26,00,45,20.80
2021,06,26,00,46,20.80
2021,06,26,00,47,20.80
2021,06,26,00,48,20.70
2021,06,26,00,49,20.70
2021,06,26,00,50,20.70
2021,06,26,00,51,20.70
2021,06,26,00,52,20.70
2021,06,26,00,53,20.70
2021,06,26,00,54,20.70
2021,06,26,00,55,20.70
2021,06,26,00,56,20.70
2021,06,26,00,57,20.70
2021,06,26,00,58,20.60
2021,06,26,00,59,20.60
2021,06,26,01,00,20.60
2021,06,26,01,01,20.60
2021,06,26,01,02,20.60
2021,06,26,01,03,20.60
2021,06,26,01,04,20.60
2021,06,26,01,05,20.70
2021,06,26,01,06,20.70
2021,06,26,01,07,20.80
2021,06,26,01,08,20.80
2021,06,26,01,09,20.80
2021,06,26,01,10,20.80
2021,06,26,01,11,20.80
2021,06,26,01,12,20.70
2021,06,26,01,13,20.70
2021,06,26,01,14,20.60
2021,06,26,01,15,20.60
2021,06,26,01,16,20.50
2021,06,26,01,17,20.50
2021,06,26,01,18,20.40
2021,06,26,01,19,20.40
2021,06,26,01,20,20.40
2021,06,26,01,21,20.30
2021,06,26,01,22,20.30
2021,06,26,01,23,20.30
2021,06,26,01,24,20.30
2021,06,26,01,25,20.40
2021,06,26,01,26,20.40
2021,06,26,01,27,20.40
2021,06,26,01,28,20.40
2021,06,26,01,29,20.40
2021,06,26,01,30,20.40
2021,06,26,01,31,20.40
2021,06,26,01,32,20.30
2021,06,26,01,33,20.30
2021,06,26,01,34,20.30
2021,06,26,01,35,20.20
2021,06,26,01,36,20.20
2021,06,26,01,37,20.20
2021,06,26,01,38,20.10
2021,06,26,01,39,20.10
2021,06,26,01,40,20.10
2021,06,26,01,41,20.00
2021,06,26,01,42,20.00
2021,06,26,01,43,19.90
2021,06,26,01,44,19.90
2021,06,26,01,45,19.90
2021,06,26,01,46,19.80
2021,06,26,01,47,19.80
2021,06,26,01,48,19.80
2021,06,26,01,49,19.80
2021,06,26,01,50,19.90
2021,06,26,01,51,19.90
2021,06,26,01,52,19.90
2021,06,26,01,53,19.90
2021,06,26,01,54,19.90
2021,06,26,01,55,19.90
2021,06,26,01,56,19.90
2021,06,26,01,57,19.90
2021,06,26,01,58,19.90
2021,06,26,01,59,19.90
2021,06,26,02,00,19.90
2021,06,26,02,01,19.90
2021,06,26,02,02,19.80
2021,06,26,02,03,19.80
2021,06,26,02,04,19.80
2021,06,26,02,05,19.80
2021,06,26,02,06,19.80
2021,06,26,02,07,19.80
2021,06,26,02,08,19.80
2021,06,26,02,09,19.80
2021,06,26,02,10,19.80
2021,06,26,02,11,19.80
2021,06,26,02,12,19.80
2021,06,26,02,13,19.80
2021,06,26,02,14,19.80
2021,06,26,02,15,19.70
2021,06,26,02,16,19.70
2021,06,26,02,17,19.70
2021,06,26,02,18,19.70
2021,06,26,02,19,19.70
2021,06,26,02,20,19.70
2021,06,26,02,21,19.70
2021,06,26,02,22,19.60
2021,06,26,02,23,19.60
2021,06,26,02,24,19.60
2021,06,26,02,25,19.60
2021,06,26,02,26,19.50
2021,06,26,02,27,19.50
2021,06,26,02,28,19.40
2021,06,26,02,29,19.40
2021,06,26,02,30,19.40
2021,06,26,02,31,19.40
2021,06,26,02,32,19.40
2021,06,26,02,33,19.30
2021,06,26,02,34,19.30
2021,06,26,02,35,19.30
2021,06,26,02,36,19.30
2021,06,26,02,37,19.30
2021,06,26,02,38,19.30
2021,06,26,02,39,19.30
2021,06,26,02,40,19.30
2021,06,26,02,41,19.30
2021,06,26,02,42,19.30
2021,06,26,02,43,19.30
2021,06,26,02,44,19.30
2021,06,26,02,45,19.30
2021,06,26,02,46,19.30
2021,06,26,02,47,19.30
2021,06,26,02,48,19.30
2021,06,26,02,49,19.30
2021,06,26,02,50,19.30
2021,06,26,02,51,19.30
2021,06,26,02,52,19.20
2021,06,26,02,53,19.20
2021,06,26,02,54,19.20
2021,06,26,02,55,19.20
2021,06,26,02,56,19.20
2021,06,26,02,57,19.20
2021,06,26,02,58,19.20
2021,06,26,02,59,19.20
2021,06,26,03,00,19.10
2021,06,26,03,01,19.10
2021,06,26,03,02,19.10
2021,06,26,03,03,19.10
2021,06,26,03,04,19.10
2021,06,26,03,05,19.00
2021,06,26,03,06,19.00
2021,06,26,03,07,19.00
2021,06,26,03,08,19.00
2021,06,26,03,09,18.90
2021,06,26,03,10,19.00
2021,06,26,03,11,19.00
2021,06,26,03,12,19.00
2021,06,26,03,13,19.00
2021,06,26,03,14,19.00
2021,06,26,03,15,19.00
2021,06,26,03,16,19.00
2021,06,26,03,17,19.00
2021,06,26,03,18,19.00
2021,06,26,03,19,19.00
2021,06,26,03,20,19.00
2021,06,26,03,21,19.10
2021,06,26,03,22,19.10
2021,06,26,03,23,19.10
2021,06,26,03,24,19.10
2021,06,26,03,25,19.10
2021,06,26,03,26,19.10
2021,06,26,03,27,19.10
2021,06,26,03,28,19.10
2021,06,26,03,29,19.10
2021,06,26,03,30,19.10
2021,06,26,03,31,19.10
2021,06,26,03,32,19.10
2021,06,26,03,33,19.10
2021,06,26,03,34,19.10
2021,06,26,03,35,19.00
2021,06,26,03,36,19.00
2021,06,26,03,37,19.00
2021,06,26,03,38,18.90
2021,06,26,03,39,18.90
2021,06,26,03,40,18.80
2021,06,26,03,41,18.80
2021,06,26,03,42,18.80
2021,06,26,03,43,18.80
2021,06,26,03,44,18.80
2021,06,26,03,45,18.80
2021,06,26,03,46,18.70
2021,06,26,03,47,18.70
2021,06,26,03,48,18.70
2021,06,26,03,49,18.70
2021,06,26,03,50,18.70
2021,06,26,03,51,18.70
2021,06,26,03,52,18.70
2021,06,26,03,53,18.70
2021,06,26,03,54,18.70
2021,06,26,03,55,18.70
2021,06,26,03,56,18.70
2021,06,26,03,57,18.70
2021,06,26,03,58,18.70
2021,06,26,03,59,18.80
2021,06,26,04,00,18.80
2021,06,26,04,01,18.80
2021,06,26,04,02,18.80
2021,06,26,04,03,18.80
2021,06,26,04,04,18.80
2021,06,26,04,05,18.80
2021,06,26,04,06,18.80
2021,06,26,04,07,18.80
2021,06,26,04,08,18.80
2021,06,26,04,09,18.80
2021,06,26,04,10,18.80
2021,06,26,04,11,18.90
2021,06,26,04,12,19.00
2021,06,26,04,13,19.10
2021,06,26,04,14,19.10
2021,06,26,04,15,19.10
2021,06,26,04,16,19.00
2021,06,26,04,17,18.90
2021,06,26,04,18,18.90
2021,06,26,04,19,18.80
2021,06,26,04,20,18.80
2021,06,26,04,21,18.70
2021,06,26,04,22,18.70
2021,06,26,04,23,18.60
2021,06,26,04,24,18.60
2021,06,26,04,25,18.60
2021,06,26,04,26,18.60
2021,06,26,04,27,18.50
2021,06,26,04,28,18.50
2021,06,26,04,29,18.40
2021,06,26,04,30,18.40
2021,06,26,04,31,18.40
2021,06,26,04,32,18.40
2021,06,26,04,33,18.40
2021,06,26,04,34,18.40
2021,06,26,04,35,18.40
2021,06,26,04,36,18.30
2021,06,26,04,37,18.30
2021,06,26,04,38,18.30
2021,06,26,04,39,18.30
2021,06,26,04,40,18.30
2021,06,26,04,41,18.30
2021,06,26,04,42,18.30
2021,06,26,04,43,18.30
2021,06,26,04,44,18.30
2021,06,26,04,45,18.30
2021,06,26,04,46,18.30
2021,06,26,04,47,18.40
2021,06,26,04,48,18.40
2021,06,26,04,49,18.40
2021,06,26,04,50,18.40
2021,06,26,04,51,18.40
2021,06,26,04,52,18.30
2021,06,26,04,53,18.30
2021,06,26,04,54,18.20
2021,06,26,04,55,18.20
2021,06,26,04,56,18.20
2021,06,26,04,57,18.10
2021,06,26,04,58,18.10
2021,06,26,04,59,18.00
2021,06,26,05,00,18.00
2021,06,26,05,01,18.00
2021,06,26,05,02,17.90
2021,06,26,05,03,17.90
2021,06,26,05,04,17.90
2021,06,26,05,05,17.90
2021,06,26,05,06,17.90
2021,06,26,05,07,17.90
2021,06,26,05,08,17.90
2021,06,26,05,09,17.90
2021,06,26,05,10,17.90
2021,06,26,05,11,17.90
2021,06,26,05,12,17.90
2021,06,26,05,13,17.90
2021,06,26,05,14,17.90
2021,06,26,05,15,17.90
2021,06,26,05,16,17.90
2021,06,26,05,17,17.90
2021,06,26,05,18,17.80
2021,06,26,05,19,17.80
2021,06,26,05,20,17.80
2021,06,26,05,21,17.90
2021,06,26,05,22,17.90
2021,06,26,05,23,17.90
2021,06,26,05,24,17.90
2021,06,26,05,25,17.90
2021,06,26,05,26,17.90
2021,06,26,05,27,17.90
2021,06,26,05,28,17.90
2021,06,26,05,29,17.80
2021,06,26,05,30,17.80
2021,06,26,05,31,17.80
2021,06,26,05,32,17.80
2021,06,26,05,33,17.80
2021,06,26,05,34,17.80
2021,06,26,05,35,17.80
2021,06,26,05,36,17.80
2021,06,26,05,37,17.80
2021,06,26,05,38,17.80
2021,06,26,05,39,17.80
2021,06,26,05,40,17.80
2021,06,26,05,41,17.80
2021,06,26,05,42,17.80
2021,06,26,05,43,17.80
2021,06,26,05,44,17.80
2021,06,26,05,45,17.80
2021,06,26,05,46,17.80
2021,06,26,05,47,17.80
2021,06,26,05,48,17.80
2021,06,26,05,49,17.80
2021,06,26,05,50,17.80
2021,06,26,05,51,17.80
2021,06,26,05,52,17.80
2021,06,26,05,53,17.80
2021,06,26,05,54,17.80
2021,06,26,05,55,17.80
2021,06,26,05,56,17.80
2021,06,26,05,57,17.80
2021,06,26,05,58,17.80
2021,06,26,05,59,17.80
2021,06,26,06,00,17.80
2021,06,26,06,01,17.80
2021,06,26,06,02,17.80
2021,06,26,06,03,17.90
2021,06,26,06,04,17.90
2021,06,26,06,05,18.00
2021,06,26,06,06,18.00
2021,06,26,06,07,18.10
2021,06,26,06,08,18.10
2021,06,26,06,09,18.20
2021,06,26,06,10,18.30
2021,06,26,06,11,18.30
2021,06,26,06,12,18.40
2021,06,26,06,13,18.40
2021,06,26,06,14,18.50
2021,06,26,06,15,18.50
2021,06,26,06,16,18.50
2021,06,26,06,17,18.60
2021,06,26,06,18,18.60
2021,06,26,06,19,18.70
2021,06,26,06,20,18.70
2021,06,26,06,21,18.80
2021,06,26,06,22,18.80
2021,06,26,06,23,18.90
2021,06,26,06,24,18.90
2021,06,26,06,25,19.00
2021,06,26,06,26,19.00
2021,06,26,06,27,19.10
2021,06,26,06,28,19.20
2021,06,26,06,29,19.20
2021,06,26,06,30,19.30
2021,06,26,06,31,19.30
2021,06,26,06,32,19.40
2021,06,26,06,33,19.50
2021,06,26,06,34,19.60
2021,06,26,06,35,19.60
2021,06,26,06,36,19.70
2021,06,26,06,37,19.80
2021,06,26,06,38,19.90
2021,06,26,06,39,20.00
2021,06,26,06,40,20.10
2021,06,26,06,41,20.20
2021,06,26,06,42,20.20
2021,06,26,06,43,20.30
2021,06,26,06,44,20.40
2021,06,26,06,45,20.50
2021,06,26,06,46,20.60
2021,06,26,06,47,20.70
2021,06,26,06,48,20.80
2021,06,26,06,49,20.90
2021,06,26,06,50,20.90
2021,06,26,06,51,21.00
2021,06,26,06,52,21.10
2021,06,26,06,53,21.20
2021,06,26,06,54,21.20
2021,06,26,06,55,21.30
2021,06,26,06,56,21.30
2021,06,26,06,57,21.40
2021,06,26,06,58,21.50
2021,06,26,06,59,21.60
2021,06,26,07,00,21.60
2021,06,26,07,01,21.70
2021,06,26,07,02,21.70
2021,06,26,07,03,21.80
2021,06,26,07,04,21.80
2021,06,26,07,05,21.90
2021,06,26,07,06,21.90
2021,06,26,07,07,22.00
2021,06,26,07,08,22.10
2021,06,26,07,09,22.20
2021,06,26,07,10,22.30
2021,06,26,07,11,22.30
2021,06,26,07,12,22.40
2021,06,26,07,13,22.50
2021,06,26,07,14,22.60
2021,06,26,07,15,22.60
2021,06,26,07,16,22.70
2021,06,26,07,17,22.80
2021,06,26,07,18,22.80
2021,06,26,07,19,22.90
2021,06,26,07,20,22.90
2021,06,26,07,21,23.00
2021,06,26,07,22,23.00
2021,06,26,07,23,23.10
2021,06,26,07,24,23.10
2021,06,26,07,25,23.20
2021,06,26,07,26,23.20
2021,06,26,07,27,23.30
2021,06,26,07,28,23.30
2021,06,26,07,29,23.40
2021,06,26,07,30,23.40
2021,06,26,07,31,23.40
2021,06,26,07,32,23.50
2021,06,26,07,33,23.60
2021,06,26,07,34,23.60
2021,06,26,07,35,23.60
2021,06,26,07,36,23.60
2021,06,26,07,37,23.70
2021,06,26,07,38,23.70
2021,06,26,07,39,23.80
2021,06,26,07,40,23.80
2021,06,26,07,41,23.80
2021,06,26,07,42,23.80
2021,06,26,07,43,23.90
2021,06,26,07,44,23.90
2021,06,26,07,45,23.90
2021,06,26,07,46,23.90
2021,06,26,07,47,23.90
2021,06,26,07,48,23.90
2021,06,26,07,49,24.00
2021,06,26,07,50,24.00
2021,06,26,07,51,24.00
2021,06,26,07,52,24.10
2021,06,26,07,53,24.10
2021,06,26,07,54,24.20
2021,06,26,07,55,24.20
2021,06,26,07,56,24.30
2021,06,26,07,57,24.30
2021,06,26,07,58,24.40
2021,06,26,07,59,24.40
2021,06,26,08,00,24.50
2021,06,26,08,01,24.60
2021,06,26,08,02,24.60
2021,06,26,08,03,24.60
2021,06,26,08,04,24.60
2021,06,26,08,05,24.70
2021,06,26,08,06,24.70
2021,06,26,08,07,24.70
2021,06,26,08,08,24.70
2021,06,26,08,09,24.80
2021,06,26,08,10,24.80
2021,06,26,08,11,24.90
2021,06,26,08,12,24.90
2021,06,26,08,13,25.00
2021,06,26,08,14,25.00
2021,06,26,08,15,25.10
2021,06,26,08,16,25.10
2021,06,26,08,17,25.20
2021,06,26,08,18,25.30
2021,06,26,08,19,25.30
2021,06,26,08,20,25.40
2021,06,26,08,21,25.40
2021,06,26,08,22,25.50
2021,06,26,08,23,25.60
2021,06,26,08,24,25.70
2021,06,26,08,25,25.70
2021,06,26,08,26,25.80
2021,06,26,08,27,25.90
2021,06,26,08,28,25.90
2021,06,26,08,29,26.00
2021,06,26,08,30,26.00
2021,06,26,08,31,26.10
2021,06,26,08,32,26.10
2021,06,26,08,33,26.10
2021,06,26,08,34,26.10
2021,06,26,08,35,26.10
2021,06,26,08,36,26.20
2021,06,26,08,37,26.20
2021,06,26,08,38,26.20
2021,06,26,08,39,26.20
2021,06,26,08,40,26.20
2021,06,26,08,41,26.20
2021,06,26,08,42,26.20
2021,06,26,08,43,26.20
2021,06,26,08,44,26.20
2021,06,26,08,45,26.20
2021,06,26,08,46,26.30
2021,06,26,08,47,26.30
2021,06,26,08,48,26.30
2021,06,26,08,49,26.30
2021,06,26,08,50,26.30
2021,06,26,08,51,26.40
2021,06,26,08,52,26.40
2021,06,26,08,53,26.40
2021,06,26,08,54,26.40
2021,06,26,08,55,26.40
2021,06,26,08,56,26.40
2021,06,26,08,57,26.40
2021,06,26,08,58,26.40
2021,06,26,08,59,26.40
2021,06,26,09,00,26.40
2021,06,26,09,01,26.40
2021,06,26,09,02,26.40
2021,06,26,09,03,26.50
2021,06,26,09,04,26.50
2021,06,26,09,05,26.60
2021,06,26,09,06,26.70
2021,06,26,09,07,26.80
2021,06,26,09,08,26.90
2021,06,26,09,09,27.00
2021,06,26,09,10,27.10
2021,06,26,09,11,27.20
2021,06,26,09,12,27.30
2021,06,26,09,13,27.40
2021,06,26,09,14,27.40
2021,06,26,09,15,27.50
2021,06,26,09,16,27.60
2021,06,26,09,17,27.70
2021,06,26,09,18,27.70
2021,06,26,09,19,27.80
2021,06,26,09,20,27.90
2021,06,26,09,21,27.90
2021,06,26,09,22,27.90
2021,06,26,09,23,27.90
2021,06,26,09,24,27.90
2021,06,26,09,25,28.00
2021,06,26,09,26,28.00
2021,06,26,09,27,28.10
2021,06,26,09,28,28.10
2021,06,26,09,29,28.10
2021,06,26,09,30,28.10
2021,06,26,09,31,28.10
2021,06,26,09,32,28.10
2021,06,26,09,33,28.10
2021,06,26,09,34,28.10
2021,06,26,09,35,28.10
2021,06,26,09,36,28.00
2021,06,26,09,37,28.00
2021,06,26,09,38,27.90
2021,06,26,09,39,27.90
2021,06,26,09,40,27.90
2021,06,26,09,41,27.90
2021,06,26,09,42,28.00
2021,06,26,09,43,28.00
2021,06,26,09,44,28.10
2021,06,26,09,45,28.10
2021,06,26,09,46,28.10
2021,06,26,09,47,28.20
2021,06,26,09,48,28.20
2021,06,26,09,49,28.20
2021,06,26,09,50,28.30
2021,06,26,09,51,28.40
2021,06,26,09,52,28.40
2021,06,26,09,53,28.50
2021,06,26,09,54,28.50
2021,06,26,09,55,28.60
2021,06,26,09,56,28.60
2021,06,26,09,57,28.70
2021,06,26,09,58,28.70
2021,06,26,09,59,28.70
2021,06,26,10,00,28.70
2021,06,26,10,01,28.70
2021,06,26,10,02,28.70
2021,06,26,10,03,28.70
2021,06,26,10,04,28.70
2021,06,26,10,05,28.80
2021,06,26,10,06,28.90
2021,06,26,10,07,29.00
2021,06,26,10,08,29.00
2021,06,26,10,09,29.10
2021,06,26,10,10,29.10
2021,06,26,10,11,29.20
2021,06,26,10,12,29.20
2021,06,26,10,13,29.30
2021,06,26,10,14,29.30
2021,06,26,10,15,29.30
2021,06,26,10,16,29.40
2021,06,26,10,17,29.40
2021,06,26,10,18,29.50
2021,06,26,10,19,29.50
2021,06,26,10,20,29.60
2021,06,26,10,21,29.70
2021,06,26,10,22,29.80
2021,06,26,10,23,29.90
2021,06,26,10,24,30.00
2021,06,26,10,25,30.10
2021,06,26,10,26,30.10
2021,06,26,10,27,30.20
2021,06,26,10,28,30.20
2021,06,26,10,29,30.30
2021,06,26,10,30,30.40
2021,06,26,10,31,30.40
2021,06,26,10,32,30.50
2021,06,26,10,33,30.60
2021,06,26,10,34,30.70
2021,06,26,10,35,30.70
2021,06,26,10,36,30.70
2021,06,26,10,37,30.70
2021,06,26,10,38,30.70
2021,06,26,10,39,30.70
2021,06,26,10,40,30.80
2021,06,26,10,41,30.80
2021,06,26,10,42,30.70
2021,06,26,10,43,30.80
2021,06,26,10,44,30.80
2021,06,26,10,45,30.90
2021,06,26,10,46,30.90
2021,06,26,10,47,31.00
2021,06,26,10,48,31.00
2021,06,26,10,49,31.00
2021,06,26,10,50,30.90
2021,06,26,10,51,30.80
2021,06,26,10,52,30.70
2021,06,26,10,53,30.70
2021,06,26,10,54,30.70
2021,06,26,10,55,30.70
2021,06,26,10,56,30.70
2021,06,26,10,57,30.70
2021,06,26,10,58,30.60
2021,06,26,10,59,30.60
2021,06,26,11,00,30.60
2021,06,26,11,01,30.60
2021,06,26,11,02,30.60
2021,06,26,11,03,30.60
2021,06,26,11,04,30.60
2021,06,26,11,05,30.60
2021,06,26,11,06,30.60
2021,06,26,11,07,30.60
2021,06,26,11,08,30.60
2021,06,26,11,09,30.70
2021,06,26,11,10,30.80
2021,06,26,11,11,30.80
2021,06,26,11,12,30.80
2021,06,26,11,13,30.90
2021,06,26,11,14,30.90
2021,06,26,11,15,30.90
2021,06,26,11,16,30.90
2021,06,26,11,17,30.90
2021,06,26,11,18,31.00
2021,06,26,11,19,31.20
2021,06,26,11,20,31.20
2021,06,26,11,21,31.30
2021,06,26,11,22,31.30
2021,06,26,11,23,31.30
2021,06,26,11,24,31.30
2021,06,26,11,25,31.30
2021,06,26,11,26,31.30
2021,06,26,11,27,31.20
2021,06,26,11,28,31.20
2021,06,26,11,29,31.20
2021,06,26,11,30,31.30
2021,06,26,11,31,31.30
2021,06,26,11,32,31.30
2021,06,26,11,33,31.20
2021,06,26,11,34,31.20
2021,06,26,11,35,31.10
2021,06,26,11,36,31.10
2021,06,26,11,37,31.00
2021,06,26,11,38,31.00
2021,06,26,11,39,31.00
2021,06,26,11,40,31.10
2021,06,26,11,41,31.20
2021,06,26,11,42,31.30
2021,06,26,11,43,31.40
2021,06,26,11,44,31.50
2021,06,26,11,45,31.50
2021,06,26,11,46,31.60
2021,06,26,11,47,31.60
2021,06,26,11,48,31.60
2021,06,26,11,49,31.60
2021,06,26,11,50,31.60
2021,06,26,11,51,31.60
2021,06,26,11,52,31.60
2021,06,26,11,53,31.50
2021,06,26,11,54,31.60
2021,06,26,11,55,31.50
2021,06,26,11,56,31.50
2021,06,26,11,57,31.50
2021,06,26,11,58,31.50
2021,06,26,11,59,31.40
2021,06,26,12,00,31.40
2021,06,26,12,01,31.40
2021,06,26,12,02,31.40
2021,06,26,12,03,31.50
2021,06,26,12,04,31.50
2021,06,26,12,05,31.50
2021,06,26,12,06,31.40
2021,06,26,12,07,31.40
2021,06,26,12,08,31.50
2021,06,26,12,09,31.50
2021,06,26,12,10,31.50
2021,06,26,12,11,31.60
2021,06,26,12,12,31.60
2021,06,26,12,13,31.60
2021,06,26,12,14,31.60
2021,06,26,12,15,31.60
2021,06,26,12,16,31.60
2021,06,26,12,17,31.60
2021,06,26,12,18,31.70
2021,06,26,12,19,31.80
2021,06,26,12,20,31.90
2021,06,26,12,21,31.90
2021,06,26,12,22,32.00
2021,06,26,12,23,32.10
2021,06,26,12,24,32.20
2021,06,26,12,25,32.30
2021,06,26,12,26,32.30
2021,06,26,12,27,32.30
2021,06,26,12,28,32.30
2021,06,26,12,29,32.30
2021,06,26,12,30,32.30
2021,06,26,12,31,32.30
2021,06,26,12,32,32.30
2021,06,26,12,33,32.30
2021,06,26,12,34,32.30
2021,06,26,12,35,32.30
2021,06,26,12,36,32.30
2021,06,26,12,37,32.30
2021,06,26,12,38,32.30
2021,06,26,12,39,32.30
2021,06,26,12,40,32.30
2021,06,26,12,41,32.40
2021,06,26,12,42,32.40
2021,06,26,12,43,32.50
2021,06,26,12,44,32.50
2021,06,26,12,45,32.60
2021,06,26,12,46,32.60
2021,06,26,12,47,32.70
2021,06,26,12,48,32.70
2021,06,26,12,49,32.80
2021,06,26,12,50,32.90
2021,06,26,12,51,33.00
2021,06,26,12,52,33.10
2021,06,26,12,53,33.10
2021,06,26,12,54,33.10
2021,06,26,12,55,33.10
2021,06,26,12,56,33.10
2021,06,26,12,57,33.00
2021,06,26,12,58,33.00
2021,06,26,12,59,32.90
2021,06,26,13,00,32.90
2021,06,26,13,01,32.90
2021,06,26,13,02,32.90
2021,06,26,13,03,33.00
2021,06,26,13,04,33.00
2021,06,26,13,05,33.00
2021,06,26,13,06,33.00
2021,06,26,13,07,33.10
2021,06,26,13,08,33.10
2021,06,26,13,09,33.10
2021,06,26,13,10,33.10
2021,06,26,13,11,33.20
2021,06,26,13,12,33.30
2021,06,26,13,13,33.30
2021,06,26,13,14,33.40
2021,06,26,13,15,33.50
2021,06,26,13,16,33.50
2021,06,26,13,17,33.60
2021,06,26,13,18,33.70
2021,06,26,13,19,33.70
2021,06,26,13,20,33.80
2021,06,26,13,21,33.80
2021,06,26,13,22,33.90
2021,06,26,13,23,34.00
2021,06,26,13,24,34.10
2021,06,26,13,25,34.30
2021,06,26,13,26,34.40
2021,06,26,13,27,34.40
2021,06,26,13,28,34.50
2021,06,26,13,29,34.60
2021,06,26,13,30,34.60
2021,06,26,13,31,34.70
2021,06,26,13,32,34.70
2021,06,26,13,33,34.70
2021,06,26,13,34,34.70
2021,06,26,13,35,34.70
2021,06,26,13,36,34.60
2021,06,26,13,37,34.60
2021,06,26,13,38,34.50
2021,06,26,13,39,34.50
2021,06,26,13,40,34.40
2021,06,26,13,41,34.40
2021,06,26,13,42,34.40
2021,06,26,13,43,34.50
2021,06,26,13,44,34.60
2021,06,26,13,45,34.70
2021,06,26,13,46,34.90
2021,06,26,13,47,35.00
2021,06,26,13,48,35.10
2021,06,26,13,49,35.20
2021,06,26,13,50,35.20
2021,06,26,13,51,35.20
2021,06,26,13,52,35.20
2021,06,26,13,53,35.20
2021,06,26,13,54,35.30
2021,06,26,13,55,35.30
2021,06,26,13,56,35.30
2021,06,26,13,57,35.20
2021,06,26,13,58,35.20
2021,06,26,13,59,35.20
2021,06,26,14,00,35.10
2021,06,26,14,01,35.10
2021,06,26,14,02,35.00
2021,06,26,14,03,35.00
2021,06,26,14,04,35.00
2021,06,26,14,05,35.00
2021,06,26,14,06,35.10
2021,06,26,14,07,35.20
2021,06,26,14,08,35.20
2021,06,26,14,09,35.30
2021,06,26,14,10,35.30
2021,06,26,14,11,35.30
2021,06,26,14,12,35.30
2021,06,26,14,13,35.40
2021,06,26,14,14,35.40
2021,06,26,14,15,35.40
2021,06,26,14,16,35.40
2021,06,26,14,17,35.40
2021,06,26,14,18,35.50
2021,06,26,14,19,35.50
2021,06,26,14,20,35.60
2021,06,26,14,21,35.60
2021,06,26,14,22,35.60
2021,06,26,14,23,35.50
2021,06,26,14,24,35.50
2021,06,26,14,25,35.50
2021,06,26,14,26,35.40
2021,06,26,14,27,35.40
2021,06,26,14,28,35.40
2021,06,26,14,29,35.40
2021,06,26,14,30,35.40
2021,06,26,14,31,35.40
2021,06,26,14,32,35.40
2021,06,26,14,33,35.40
2021,06,26,14,34,35.30
2021,06,26,14,35,35.40
2021,06,26,14,36,35.40
2021,06,26,14,37,35.50
2021,06,26,14,38,35.60
2021,06,26,14,39,35.60
2021,06,26,14,40,35.60
2021,06,26,14,41,35.70
2021,06,26,14,42,35.70
2021,06,26,14,43,35.70
2021,06,26,14,44,35.70
2021,06,26,14,45,35.80
2021,06,26,14,46,35.80
2021,06,26,14,47,35.80
2021,06,26,14,48,35.90
2021,06,26,14,49,35.90
2021,06,26,14,50,36.00
2021,06,26,14,51,36.10
2021,06,26,14,52,36.10
2021,06,26,14,53,36.10
2021,06,26,14,54,36.10
2021,06,26,14,55,36.00
2021,06,26,14,56,36.00
2021,06,26,14,57,35.90
2021,06,26,14,58,35.80
2021,06,26,14,59,35.80
2021,06,26,15,00,35.80
2021,06,26,15,01,35.80
2021,06,26,15,02,35.80
2021,06,26,15,03,35.80
2021,06,26,15,04,35.80
2021,06,26,15,05,35.70
2021,06,26,15,06,35.70
2021,06,26,15,07,35.80
2021,06,26,15,08,35.80
2021,06,26,15,09,35.80
2021,06,26,15,10,35.80
2021,06,26,15,11,35.80
2021,06,26,15,12,35.80
2021,06,26,15,13,35.80
2021,06,26,15,14,35.80
2021,06,26,15,15,35.80
2021,06,26,15,16,35.80
2021,06,26,15,17,35.80
2021,06,26,15,18,35.80
2021,06,26,15,19,35.80
2021,06,26,15,20,35.80
2021,06,26,15,21,35.80
2021,06,26,15,22,35.70
2021,06,26,15,23,35.70
2021,06,26,15,24,35.70
2021,06,26,15,25,35.70
2021,06,26,15,26,35.80
2021,06,26,15,27,35.80
2021,06,26,15,28,35.80
2021,06,26,15,29,35.80
2021,06,26,15,30,35.80
2021,06,26,15,31,35.80
2021,06,26,15,32,35.80
2021,06,26,15,33,35.80
2021,06,26,15,34,35.80
2021,06,26,15,35,35.80
2021,06,26,15,36,35.80
2021,06,26,15,37,35.80
2021,06,26,15,38,35.80
2021,06,26,15,39,35.80
2021,06,26,15,40,35.90
2021,06,26,15,41,35.90
2021,06,26,15,42,35.90
2021,06,26,15,43,36.00
2021,06,26,15,44,36.00
2021,06,26,15,45,36.00
2021,06,26,15,46,36.00
2021,06,26,15,47,36.00
2021,06,26,15,48,35.90
2021,06,26,15,49,35.90
2021,06,26,15,50,35.90
2021,06,26,15,51,35.90
2021,06,26,15,52,35.90
2021,06,26,15,53,35.90
2021,06,26,15,54,35.90
2021,06,26,15,55,35.90
2021,06,26,15,56,35.90
2021,06,26,15,57,35.80
2021,06,26,15,58,35.80
2021,06,26,15,59,35.80
2021,06,26,16,00,35.90
2021,06,26,16,01,35.90
2021,06,26,16,02,35.90
2021,06,26,16,03,35.90
2021,06,26,16,04,35.90
2021,06,26,16,05,36.00
2021,06,26,16,06,36.00
2021,06,26,16,07,36.00
2021,06,26,16,08,36.10
2021,06,26,16,09,36.20
2021,06,26,16,10,36.30
2021,06,26,16,11,36.30
2021,06,26,16,12,36.40
2021,06,26,16,13,36.40
2021,06,26,16,14,36.40
2021,06,26,16,15,36.50
2021,06,26,16,16,36.50
2021,06,26,16,17,36.60
2021,06,26,16,18,36.60
2021,06,26,16,19,36.60
2021,06,26,16,20,36.70
2021,06,26,16,21,36.70
2021,06,26,16,22,36.80
2021,06,26,16,23,36.90
2021,06,26,16,24,36.90
2021,06,26,16,25,37.00
2021,06,26,16,26,37.10
2021,06,26,16,27,37.10
2021,06,26,16,28,37.20
2021,06,26,16,29,37.00
2021,06,26,16,30,36.70
2021,06,26,16,31,36.10
2021,06,26,16,32,35.40
2021,06,26,16,33,34.70
2021,06,26,16,34,34.10
2021,06,26,16,35,33.70
2021,06,26,16,36,33.30
2021,06,26,16,37,32.90
2021,06,26,16,38,32.70
2021,06,26,16,39,32.50
2021,06,26,16,40,32.30
2021,06,26,16,41,32.20
2021,06,26,16,42,32.00
2021,06,26,16,43,31.90
2021,06,26,16,44,31.80
2021,06,26,16,45,31.80
2021,06,26,16,46,31.80
2021,06,26,16,47,31.80
2021,06,26,16,48,31.80
2021,06,26,16,49,31.80
2021,06,26,16,50,31.80
2021,06,26,16,51,31.80
2021,06,26,16,52,31.90
2021,06,26,16,53,31.90
2021,06,26,16,54,31.90
2021,06,26,16,55,31.90
2021,06,26,16,56,31.90
2021,06,26,16,57,31.90
2021,06,26,16,58,31.90
2021,06,26,16,59,31.90
2021,06,26,17,00,31.90
2021,06,26,17,01,31.90
2021,06,26,17,02,31.90
2021,06,26,17,03,31.90
2021,06,26,17,04,32.00
2021,06,26,17,05,32.10
2021,06,26,17,06,32.20
2021,06,26,17,07,32.30
2021,06,26,17,08,32.30
2021,06,26,17,09,32.30
2021,06,26,17,10,32.30
2021,06,26,17,11,32.40
2021,06,26,17,12,32.40
2021,06,26,17,13,32.40
2021,06,26,17,14,32.50
2021,06,26,17,15,32.50
2021,06,26,17,16,32.60
2021,06,26,17,17,32.60
2021,06,26,17,18,32.70
2021,06,26,17,19,32.80